| time (UTC) | temp F | wind direction | speed MPH | gust MPH | rain 1hr in | rain 24hr in | rain mn in | humidity % | barometer mb |
| 20260904174419 | 67 | 67 | 10.0 | 15.0 | 0.00 | 0.00 | 0.00 | 86 | 1010.7 |
| 20260904172428 | 67 | 95 | 8.0 | 13.0 | 0.00 | 0.00 | 0.00 | 85 | 1011.2 |
| 20260904170925 | 68 | 92 | 10.0 | 15.0 | 0.00 | 0.00 | 0.00 | 85 | 1010.8 |
| 20260904165415 | 68 | 78 | 9.0 | 13.0 | 0.00 | 0.00 | 0.00 | 85 | 1010.5 |
| 20260904163430 | 67 | 55 | 8.0 | 13.0 | 0.00 | 0.00 | 0.00 | 88 | 1010.6 |
| 20260904161423 | 65 | 36 | 6.0 | 11.0 | 0.00 | 0.00 | 0.00 | 94 | 1010.6 |
| 20260904155428 | 62 | 55 | 5.0 | 9.0 | 0.00 | 0.00 | 0.00 | 98 | 1010.7 |
| 20260904153926 | 60 | 74 | 3.0 | 8.0 | 0.00 | 0.00 | 0.00 | 98 | 1010.7 |
| 20260904151933 | 59 | 99 | 4.0 | 8.0 | 0.00 | 0.00 | 0.00 | 98 | 1010.7 |
| 20260904150418 | 58 | 82 | 4.0 | 8.0 | 0.00 | 0.00 | 0.00 | 97 | 1010.8 |
| 20260904144432 | 58 | 92 | 6.0 | 8.0 | 0.00 | 0.00 | 0.00 | 97 | 1010.7 |
| 20260904142430 | 58 | 101 | 3.0 | 6.0 | 0.00 | 0.00 | 0.00 | 97 | 1010.7 |
| 20260904140426 | 57 | 134 | 2.0 | 7.0 | 0.00 | 0.00 | 0.00 | 97 | 1010.6 |
| 20260904134428 | 55 | 80 | 3.0 | 5.0 | 0.00 | 0.00 | 0.00 | 98 | 1010.5 |
| 20260904132920 | 53 | 101 | 3.0 | 6.0 | 0.00 | 0.00 | 0.00 | 98 | 1010.3 |
| 20260904130930 | 50 | 60 | 0.0 | 0.0 | 0.00 | 0.00 | 0.00 | 97 | 1010.2 |
| 20260904124926 | 47 | 60 | 0.0 | 0.0 | 0.00 | 0.03 | 0.00 | 97 | 1010.1 |
| 20260904122923 | 47 | 81 | 0.0 | 0.0 | 0.00 | 0.03 | 0.00 | 96 | 1010.2 |
| 20260904120925 | 48 | 81 | 0.0 | 0.0 | 0.00 | 0.03 | 0.00 | 96 | 1009.9 |
| 20260904115421 | 49 | 81 | 0.0 | 0.0 | 0.00 | 0.03 | 0.00 | 97 | 1010.0 |
| 20260904113424 | 48 | 81 | 0.0 | 0.0 | 0.00 | 0.03 | 0.00 | 97 | 1009.4 |
| 20260904111919 | 48 | 81 | 0.0 | 0.0 | 0.00 | 0.03 | 0.00 | 96 | 1009.5 |
| 20260904105923 | 51 | 84 | 0.0 | 0.0 | 0.00 | 0.03 | 0.00 | 97 | 1009.6 |
| 20260904103931 | 49 | 84 | 0.0 | 0.0 | 0.00 | 0.03 | 0.00 | 97 | 1009.6 |
| 20260904101929 | 48 | 84 | 0.0 | 0.0 | 0.00 | 0.03 | 0.00 | 96 | 1009.3 |
| 20260904095925 | 50 | 84 | 0.0 | 0.0 | 0.00 | 0.03 | 0.00 | 95 | 1009.3 |
| 20260904094419 | 51 | 84 | 0.0 | 0.0 | 0.00 | 0.03 | 0.00 | 96 | 1009.3 |
| 20260904092914 | 51 | 84 | 0.0 | 0.0 | 0.00 | 0.03 | 0.00 | 96 | 1009.3 |
| 20260904090923 | 52 | 84 | 0.0 | 0.0 | 0.00 | 0.03 | 0.00 | 95 | 1009.1 |
| 20260904085413 | 52 | 84 | 0.0 | 0.0 | 0.00 | 0.03 | 0.00 | 97 | 1008.8 |
| 20260904083432 | 50 | 94 | 0.0 | 0.0 | 0.00 | 0.03 | 0.00 | 96 | 1008.7 |
| 20260904081430 | 52 | 99 | 0.0 | 0.0 | 0.00 | 0.03 | 0.00 | 96 | 1008.8 |
| 20260904075916 | 52 | 99 | 0.0 | 0.0 | 0.00 | 0.03 | 0.00 | 95 | 1008.9 |
| 20260904073929 | 52 | 99 | 0.0 | 2.0 | 0.00 | 0.03 | 0.00 | 94 | 1008.9 |
| 20260904072416 | 55 | 106 | 0.0 | 3.0 | 0.00 | 0.03 | 0.00 | 96 | 1009.0 |
| 20260904070915 | 54 | 95 | 1.0 | 6.0 | 0.00 | 0.03 | 0.00 | 95 | 1009.1 |
| 20260904064919 | 55 | 98 | 2.0 | 4.0 | 0.00 | 0.03 | 0.00 | 95 | 1009.2 |
| 20260904062927 | 54 | 136 | 0.0 | 1.0 | 0.00 | 0.03 | 0.00 | 95 | 1009.0 |
| 20260904061421 | 55 | 110 | 0.0 | 2.0 | 0.00 | 0.03 | 0.00 | 94 | 1008.8 |
| 20260904055433 | 56 | 110 | 1.0 | 4.0 | 0.00 | 0.03 | 0.03 | 95 | 1008.5 |
| 20260904053923 | 57 | 105 | 3.0 | 7.0 | 0.00 | 0.03 | 0.03 | 95 | 1008.4 |
| 20260904051933 | 54 | 113 | 2.0 | 4.0 | 0.00 | 0.03 | 0.03 | 94 | 1008.4 |
| 20260904050423 | 54 | 84 | 2.0 | 4.0 | 0.00 | 0.03 | 0.03 | 94 | 1008.3 |
| 20260904044920 | 54 | 65 | 1.0 | 4.0 | 0.00 | 0.03 | 0.03 | 94 | 1008.1 |
| 20260904042935 | 54 | 82 | 0.0 | 0.0 | 0.00 | 0.03 | 0.03 | 91 | 1008.0 |
| 20260904041423 | 57 | 81 | 0.0 | 2.0 | 0.00 | 0.03 | 0.03 | 92 | 1008.2 |
| 20260904035432 | 57 | 104 | 4.0 | 7.0 | 0.00 | 0.03 | 0.03 | 92 | 1008.1 |
| 20260904033928 | 59 | 74 | 3.0 | 7.0 | 0.00 | 0.03 | 0.03 | 90 | 1008.0 |
| 20260904031928 | 60 | 90 | 2.0 | 4.0 | 0.00 | 0.03 | 0.03 | 89 | 1008.1 |
| 20260904025936 | 60 | 93 | 2.0 | 6.0 | 0.00 | 0.03 | 0.03 | 90 | 1007.8 |
| 20260904023948 | 60 | 90 | 1.0 | 3.0 | 0.00 | 0.03 | 0.03 | 88 | 1007.7 |
| 20260904021927 | 62 | 93 | 6.0 | 8.0 | 0.00 | 0.03 | 0.03 | 87 | 1007.2 |
| 20260904020418 | 63 | 82 | 5.0 | 10.0 | 0.00 | 0.03 | 0.03 | 84 | 1006.8 |
| 20260904014427 | 65 | 69 | 5.0 | 10.0 | 0.00 | 0.03 | 0.03 | 80 | 1006.8 |
| 20260904011920 | 67 | 84 | 7.0 | 12.0 | 0.00 | 0.03 | 0.03 | 76 | 1006.5 |
| 20260904005932 | 68 | 65 | 9.0 | 16.0 | 0.00 | 0.03 | 0.03 | 75 | 1005.9 |
| 20260904003919 | 69 | 96 | 11.0 | 17.0 | 0.00 | 0.03 | 0.03 | 72 | 1006.0 |
| 20260904001923 | 69 | 64 | 11.0 | 14.0 | 0.00 | 0.03 | 0.03 | 72 | 1005.8 |
| 20260903235934 | 70 | 92 | 11.0 | 17.0 | 0.00 | 0.03 | 0.03 | 71 | 1005.6 |
| 20260903233930 | 70 | 73 | 7.0 | 16.0 | 0.00 | 0.03 | 0.03 | 71 | 1005.5 |
| 20260903232427 | 71 | 57 | 11.0 | 16.0 | 0.00 | 0.03 | 0.03 | 71 | 1005.4 |
| 20260903230917 | 71 | 75 | 9.0 | 16.0 | 0.00 | 0.03 | 0.03 | 71 | 1005.2 |
| 20260903224932 | 72 | 94 | 12.0 | 17.0 | 0.00 | 0.03 | 0.03 | 71 | 1005.0 |
| 20260903222931 | 72 | 103 | 10.0 | 15.0 | 0.00 | 0.03 | 0.03 | 70 | 1005.0 |
| 20260903221429 | 74 | 97 | 11.0 | 18.0 | 0.00 | 0.03 | 0.03 | 68 | 1005.0 |
| 20260903215427 | 74 | 90 | 10.0 | 17.0 | 0.00 | 0.03 | 0.03 | 68 | 1004.9 |
| 20260903213415 | 74 | 101 | 11.0 | 15.0 | 0.00 | 0.03 | 0.03 | 67 | 1004.8 |
| 20260903211914 | 72 | 95 | 9.0 | 15.0 | 0.00 | 0.03 | 0.03 | 71 | 1004.9 |
| 20260903205927 | 72 | 80 | 10.0 | 16.0 | 0.00 | 0.03 | 0.03 | 71 | 1004.9 |
| 20260903203925 | 73 | 52 | 9.0 | 16.0 | 0.00 | 0.03 | 0.03 | 69 | 1005.0 |
| 20260903201920 | 73 | 110 | 8.0 | 17.0 | 0.00 | 0.03 | 0.03 | 70 | 1005.1 |
| 20260903195932 | 72 | 90 | 9.0 | 14.0 | 0.00 | 0.03 | 0.03 | 71 | 1005.4 |
| 20260903193925 | 71 | 88 | 10.0 | 14.0 | 0.00 | 0.03 | 0.03 | 72 | 1005.7 |
| 20260903192428 | 69 | 111 | 8.0 | 18.0 | 0.00 | 0.03 | 0.03 | 76 | 1005.6 |
| 20260903190417 | 69 | 92 | 10.0 | 16.0 | 0.00 | 0.03 | 0.03 | 75 | 1005.6 |
| 20260903184424 | 69 | 105 | 6.0 | 15.0 | 0.00 | 0.03 | 0.03 | 75 | 1005.7 |
| 20260903182425 | 68 | 103 | 5.0 | 15.0 | 0.00 | 0.03 | 0.03 | 78 | 1005.5 |
| 20260903180432 | 67 | 111 | 8.0 | 12.0 | 0.00 | 0.03 | 0.03 | 79 | 1005.2 |